Franklin, PA

9:11 AM EST on December 10, 2019 (GMT -0500)
Venango Regional

Weather History for KFKL - October, 2019

Change the Weather History Date:

Wednesday, October 23, 2019

  Actual Average Record
Temperature  
Mean Temperature 46 °F -  
Max Temperature 55 °F 59 °F 81 °F (1947)
Min Temperature 39 °F 38 °F 22 °F (1930)
Degree Days  
Heating Degree Days 18    
Moisture  
Dew Point 33 °F    
Average Humidity 62    
Maximum Humidity 89    
Minimum Humidity 37    
Precipitation  
Precipitation 0.00 in - - ()
Sea Level Pressure  
Sea Level Pressure 30.04 in    
Wind  
Wind Speed 8 mph (SW)    
Max Wind Speed 18 mph    
Max Gust Speed 29 mph    
Visibility 10 miles    
Events      
Averages and records for this station are not official NWS values.
T = Trace of Precipitation, MM = Missing Value Source: NWS Daily Summary

Daily Weather History Graph

Daily Weather History Graph

Search for Another Location

Airport or City:

Astronomy

Oct. 23, 2019 Rise Set
Actual Time 7:40 AM EDT 6:26 PM EDT
Civil Twilight 7:11 AM EDT 6:55 PM EDT
Nautical Twilight 6:39 AM EDT 7:27 PM EDT
Astronomical Twilight 6:07 AM EDT 7:59 PM EDT
Moon 1:51 AM EDT (10/23) 4:20 PM EDT (10/23)
Length of Visible Light 11h 43m
Length of Day
10h 46m
Waning Crescent, 27% of the Moon is Illuminated
Oct 23
Waning Crescent
Oct 27
New
Nov 4
First Quarter
Nov 12
Full
Nov 19
Last Quarter

Hourly Weather History & Observations

Time (EDT) Temp. Windchill Dew Point Humidity Pressure Visibility Wind Dir Wind Speed Gust Speed Precip Events Conditions
12:56 AM 46.9 °F - 37.0 °F 68% 29.89 in 10.0 mi WSW 5.8 mph - N/A   Clear
1:56 AM 45.0 °F 41.2 °F 37.0 °F 74% 29.89 in 10.0 mi West 6.9 mph - N/A   Clear
2:56 AM 44.1 °F 40.1 °F 37.0 °F 76% 29.89 in 10.0 mi WSW 6.9 mph - N/A   Clear
3:56 AM 43.0 °F 39.5 °F 36.0 °F 76% 29.89 in 10.0 mi WSW 5.8 mph - N/A   Clear
4:56 AM 43.0 °F 38.8 °F 36.0 °F 76% 29.91 in 10.0 mi SW 6.9 mph - N/A   Clear
5:56 AM 42.1 °F 40.2 °F 37.0 °F 82% 29.94 in 10.0 mi SW 3.5 mph - N/A   Clear
6:56 AM 39.9 °F 34.5 °F 36.0 °F 86% 29.96 in 10.0 mi SSW 8.1 mph - N/A   Clear
7:56 AM 39.9 °F 35.1 °F 37.0 °F 89% 29.97 in 10.0 mi SSW 6.9 mph - N/A   Clear
8:56 AM 43.0 °F 38.2 °F 37.9 °F 82% 30.00 in 10.0 mi SW 8.1 mph - N/A   Clear
9:56 AM 46.0 °F 42.5 °F 37.9 °F 73% 30.02 in 10.0 mi SW 6.9 mph - N/A   Clear
10:56 AM 48.0 °F - 35.1 °F 61% 30.04 in 10.0 mi SW 11.5 mph 26.5 mph N/A   Scattered Clouds
11:56 AM 50.0 °F - 30.9 °F 48% 30.05 in 10.0 mi West 18.4 mph 28.8 mph N/A   Unknown
12:56 PM 51.1 °F - 32.0 °F 48% - - North - - N/A   Unknown
1:56 PM 53.1 °F - 30.0 °F 41% 30.06 in 10.0 mi WSW 17.3 mph 24.2 mph N/A   Partly Cloudy
2:56 PM 53.1 °F - 28.0 °F 38% 30.07 in 10.0 mi WSW 18.4 mph 27.6 mph N/A   Clear
3:56 PM 54.0 °F - 28.0 °F 37% 30.09 in 10.0 mi WSW 17.3 mph 21.9 mph N/A   Clear
4:56 PM 54.0 °F - 28.0 °F 37% 30.10 in 10.0 mi WSW 13.8 mph 21.9 mph N/A   Partly Cloudy
5:56 PM 53.1 °F - 28.9 °F 40% 30.12 in 10.0 mi WSW 9.2 mph - N/A   Clear
6:56 PM 48.0 °F - 30.0 °F 50% 30.14 in 10.0 mi SW 5.8 mph - N/A   Clear
7:56 PM 45.0 °F 41.2 °F 30.9 °F 58% 30.15 in 10.0 mi SSW 6.9 mph - N/A   Clear
8:56 PM 45.0 °F 41.2 °F 30.9 °F 58% 30.16 in 10.0 mi SSW 6.9 mph - N/A   Clear
9:56 PM 45.0 °F 40.6 °F 30.9 °F 58% 30.17 in 10.0 mi SSW 8.1 mph - N/A   Clear
10:56 PM 43.0 °F 38.8 °F 32.0 °F 65% 30.19 in 10.0 mi South 6.9 mph - N/A   Clear
11:56 PM 44.1 °F 39.5 °F 32.0 °F 63% 30.18 in 10.0 mi SSW 8.1 mph - N/A   Clear